Location: Luz Observatory
(34.5000°N, 117.2833°W)
Time: 01:48:04
(UTC-08:00)

Daily predictions for brighter satellites

Satellite Brightness Start Highest point End
(mag) Time Altitude Azimuth Time Altitude Azimuth Time Altitude Azimuth
SL-16 R/B 4.2 03:39:13 23° ENE 03:39:13 23° ENE 03:43:10 10° ESE
USA 229 DEB 4.3 04:00:49 53° NE 04:01:31 55° NE 04:08:36 10° SE
USA 229 4.3 04:00:52 52° NNE 04:01:37 54° NE 04:08:41 10° SE
DELTA 2 R/B (1) 3.5 04:45:41 72° SW 04:46:13 80° SSE 04:51:46 10° ENE
COSMO-SKYMED 1 3.5 04:46:17 10° SSE 04:50:27 47° ENE 04:53:20 19° N
DMSP 5D-2 F-14 4.5 04:47:26 10° N 04:52:51 73° WNW 04:58:14 10° SSW
Cosmos 1538 Rocket 4.4 04:53:48 19° N 04:57:36 63° ENE 05:02:53 10° SSE
Cosmos 304 Rocket 3.6 05:00:38 63° NW 05:01:19 77° WSW 05:06:05 10° S
GPS 2-05 Rocket1 3.7 05:03:05 42° ENE 05:03:05 42° ENE 05:05:25 10° E
Ariane Rocket 3.7 05:00:48 10° NNE 05:05:48 55° E 05:10:48 10° S
Cosmos 1500 Rocket 3.4 05:05:52 56° NW 05:06:39 72° W 05:11:06 10° S
Cosmos 1328 3.6 05:06:42 67° NNW 05:07:12 84° W 05:11:11 10° S
Cosmos 2233 Rocket 4.0 05:01:46 10° SSW 05:07:50 54° W 05:13:59 10° N
CZ-3 R/B 4.5 05:03:21 22° WSW 05:08:21 24° WSW 05:16:29 10° S
Cosmos 2227 4.0 05:04:09 10° SSW 05:09:45 79° WNW 05:15:23 10° NNE
ISS -3.4 05:14:39 79° SE 05:14:39 79° SE 05:17:43 10° SE
Cosmos 2237 Rocket 4.2 05:19:57 12° SW 05:19:57 12° SW 05:20:38 10° SW
OAO 2 Rocket 3.2 05:17:32 43° W 05:19:07 77° SSW 05:24:02 10° ESE
SKYMED 3 4.4 05:16:07 10° S 05:20:26 74° WSW 05:23:44 17° NNW
SL-16 R/B 2.5 05:21:11 33° WNW 05:22:56 42° WSW 05:28:13 10° S
ATLAS 2A CENTAUR R/B 3.7 05:21:30 21° SW 05:23:05 26° SSW 05:25:19 10° SE
Thor Agena Rocket 4.3 05:18:34 10° SSW 05:23:06 31° W 05:23:06 31° W
DMSP B5D1-3 4.5 05:18:53 10° SSE 05:24:00 88° ENE 05:29:08 10° NNW
Cosmos 968 Rocket 4.4 05:27:04 28° NW 05:27:04 28° NW 05:30:55 10° N
ATLAS 3B CENTAUR R/B 4.4 05:24:22 10° SW 05:29:54 39° SSE 05:43:53 10° E
Cosmos 1703 4.1 05:26:47 10° N 05:30:37 52° E 05:34:28 10° SSE
Cosmos 2034 Rocket 4.2 05:25:48 10° S 05:31:56 74° E 05:38:10 10° N
Meteor 1-28 Rocket 3.0 05:28:35 10° S 05:32:21 84° WSW 05:36:06 10° NNW
PSLV R/B 4.3 05:34:15 28° NNW 05:34:43 30° N 05:37:45 10° NE
Cosmos 1271 Rocket 3.1 05:32:06 10° SSW 05:35:40 37° WNW 05:39:12 10° N
SKYMED 2 3.9 05:34:23 10° S 05:38:30 43° W 05:41:58 14° NNW
Cosmos 1626 3.2 05:34:58 10° N 05:38:36 47° E 05:42:11 10° SSE
Gbstr 26 Del rocket 3.9 05:36:24 10° SW 05:41:29 73° SE 05:47:53 10° NE
Cosmos 2058 2.9 05:37:34 10° NNW 05:41:38 57° W 05:45:41 10° S
Cosmos 773 Rocket 3.9 05:38:23 10° NNW 05:43:40 73° WSW 05:48:55 10° S
Cosmos 1513 Rocket 4.4 05:39:51 10° SSW 05:46:05 75° W 05:52:28 10° N
YAOGAN 1 4.2 05:43:00 10° NNE 05:47:02 37° E 05:51:02 10° SSE
Cosmos 1184 Rocket 3.7 05:44:02 10° N 05:47:17 50° E 05:50:29 10° SSE
Cosmos 1340 Rocket 3.1 05:46:27 10° NNW 05:50:13 44° W 05:54:00 10° SSW
Cosmos 2221 2.8 05:46:08 10° SSW 05:50:14 42° W 05:54:20 10° N
SL-14 R/B 4.3 05:52:38 15° NW 05:55:05 26° W 05:58:28 10° SSW
Cosmos 292 Rocket 3.8 05:52:32 10° NNW 05:57:21 88° ENE 06:02:09 10° SSE
Cosmos 1666 Rocket 3.7 05:53:46 10° N 05:58:15 79° E 06:02:42 10° S
Tiangong 2 1.4 05:57:49 19° W 05:59:48 47° NNW 06:02:51 10° NE
Cosmos 1464 Rocket 4.3 05:55:26 10° SSW 06:01:26 45° W 06:07:27 10° N
Helios 1B rocket 4.1 06:00:12 10° SE 06:03:57 35° ENE 06:07:42 10° N
Cosmos 1943 3.7 05:58:25 10° NNW 06:04:06 64° ENE 06:09:43 10° SSE
Cosmos 1356 Rocket 3.4 06:00:20 10° NNW 06:04:24 63° W 06:08:32 10° S
APEX 3.3 06:01:08 10° SSW 06:05:22 78° ESE 06:08:43 10° NNE
NOSS 3-1 (A) 4.2 05:58:32 10° NW 06:06:22 74° WSW 06:14:49 10° SSE
SMAP 3.3 06:01:43 10° NNE 06:06:24 77° ESE 06:11:02 10° S
ERBS 3.2 06:06:37 14° WNW 06:09:06 33° SW 06:12:12 10° S
SJ-7 4.4 06:08:20 10° NNE 06:12:23 88° ESE 06:16:27 10° SSW
Cosmos 2344 3.6 06:04:42 10° SW 06:12:24 79° WNW 06:20:45 10° NNE
ATLAS 2AS CENTAUR R/B 4.1 06:07:29 10° NNW 06:15:01 42° NE 06:22:02 10° ESE
Cosmos 1908 3.5 06:18:52 10° SSW 06:22:32 45° W 06:26:13 10° N
SPOT 3 Rocket 3.6 06:17:23 10° NNE 06:22:37 89° ESE 06:27:50 10° SSW
Cosmos 2263 Rocket 2.2 06:17:45 10° SSW 06:23:20 62° WNW 06:29:00 10° NNE
DELTA 2 R/B(2) 3.5 06:23:16 10° W 06:25:09 63° NNW 06:28:09 10° ENE
COSMO-SKYMED 1 4.5 06:25:13 10° WSW 06:26:49 12° W 06:28:25 10° WNW
Cosmos 1603 4.4 06:22:07 10° NW 06:27:07 33° WSW 06:32:07 10° SSW
USA 234 4.0 06:20:50 10° ESE 06:27:07 51° NE 06:33:25 10° NNW
SJ-12 4.3 06:24:03 10° N 06:27:52 40° WNW 06:31:40 10° SW
Cosmos 1470 Rocket 3.9 06:26:32 10° N 06:30:51 71° E 06:35:11 10° SSE
DELTA 2 R/B (1) 3.9 06:27:28 10° W 06:32:54 53° N 06:38:20 10° ENE
